Weather in Dovbysh

Ukraine / Zhytomyr Region     50°22′23″N   27°59′04″E
temp.,
°C
wind,
m/s
gust,
m/s
humid.,
%
clouds,
%
prec.,
mm/h
press.,
hPa
HPBL,
m
29 june, wed
wed2900:00+20ne117835 0.3 101911
03:00+19e0084100 1.1 101911
06:00+19ese228676 0.1 101916
09:00+25ese226795 0.1 1018246
12:00+30se21487 0.0 10171379
15:00+31s334019 0.0 10162546
18:00+29nne334991 0.1 1015344
21:00+18ese4989100 1.5 1016136
30 june, thu
thu3000:00+17ene119698 1.3 101725
03:00+17s01925 1.3 101611
06:00+17e23964 0.0 101678
09:00+22ene33795 0.0 1016409
12:00+26ene34590 0.0 10161085
15:00+28ne445234 0.0 10161798
18:00+26ene4660100 0.0 1016753
21:00+22e4977100 0.0 1017303
1 july, fri
fri100:00+19e4108471 0.0 1018252
03:00+16ese38946 0.0 1019149
06:00+17ese349210 0.0 101997
09:00+22e45660 0.0 1020568
12:00+25ese45430 0.0 10201400
15:00+26ese44390 0.0 10191618
18:00+26ese34433 0.0 10191699
21:00+21ese2268100 0.0 101923
2 july, sat
sat200:00+18ese3469100 0.0 102162
03:00+16se36806 0.0 102189
06:00+15se34805 0.0 102277
09:00+22sse3458100 0.0 1022363
12:00+26sse344673 0.0 10221281
15:00+28sse33395 0.0 10211703
18:00+28se22401 0.0 10201670
21:00+22ese35610 0.0 102060
3 july, sun
sun300:00+19se345894 0.0 102159
03:00+19s235893 0.0 102170
06:00+19sw1165100 0.1 102020
09:00+19wsw348456 1.7 1020316
12:00+25w436540 0.8 10201144
15:00+24wnw446454 0.8 10201096
18:00+23wnw456763 0.0 10191013
21:00+21wnw367685 0.0 1019250